Location: Gand�
(15.0971°N, 12.6564°W)
Time: 15:25:23
(UTC+00:00)

FENGYUN 3A - Pass Details

Date: 07 August 2020
Orbit: 823 x 837 km, 98.4° (Epoch: 19 September)

Event Time Altitude Azimuth Distance (km) Brightness Sun altitude
Rises 05:33:54 0° 7° (N) 3,355 7.2 -14.7°
Reaches altitude 10° 05:36:16 10° 4° (N) 2,420 6.4 -14.2°
Maximum altitude 05:41:34 64° 283° (WNW) 907 3.6 -13.0°
Drops below altitude 10° 05:46:50 10° 203° (SSW) 2,413 5.7 -11.8°
Enters shadow 05:49:08 - 200° (SSW) 3,318 6.4 -11.3°
